Location: Clarion
(42.7316°N, 93.7330°W)
Time: 22:10:22
(UTC+00:00)

Cosmos 2058 - Pass Details

Date: 22 April 2026
Orbit: 523 x 538 km, 82.5° (Epoch: 12 May)

Event Time Altitude Azimuth Distance (km) Brightness Sun altitude
Rises 03:54:26 0° 352° (N) 2,676 7.2 -26.5°
Reaches altitude 10° 03:56:36 10° 354° (N) 1,779 6.1 -26.8°
Enters shadow 03:58:58 35° 359° (N) 859 4.1 -27.0°
